ISS
1 25544U 98067A 10148.00294017 .00028153 00000-0 18941-3 0 2311
2 25544 051.6468 334.1185 0009160 355.1703 142.5616 15.74882994660292
CO-58
1 28895U 05043F 10146.73444380 .00000042 00000-0 18133-4 0 05946
2 28895 098.0179 031.9193 0017784 356.9810 003.1284 14.59892922243854
FALCON
1 30776U 07006E 10146.43629354 .00000393 00000-0 31158-4 0 8350
2 30776 035.4327 176.3463 0001575 335.2357 024.8284 15.03662380176786
MAST
1 31126U 07012K 10146.60727289 -.00000023 00000-0 56178-5 0 8746
2 31126 097.9398 189.7325 0093391 293.4650 065.6747 14.53587440164927
CAPE1
1 31130U 07012P 10147.80937699 .00000184 00000-0 53372-4 0 8954
2 31130 097.9401 188.3212 0100838 297.6095 061.4863 14.52179707164702
COMPASS
1 32787U 08021E 10145.75104764 .00000547 00000-0 75724-4 0 06827
2 32787 097.8949 210.8144 0015948 003.1517 356.9788 14.81870611112174
AAUSAT2
1 32788U 08021F 10146.63398479 .00000300 00000-0 44451-4 0 06756
2 32788 097.8951 211.8087 0015822 001.8159 358.3081 14.82013019112313
DO-64
1 32789U 08021G 10146.64492487 .00000466 00000-0 65158-4 0 06921
2 32789 097.9022 212.2683 0015502 359.8275 000.2932 14.82145596112315
CO-66
1 32791U 08021J 10145.83725291 .00000123 00000-0 22392-4 0 06750
2 32791 097.8971 210.9182 0016286 001.3429 358.7750 14.81655911112145
RS-30
1 32953U 08025A 10147.68501147 .00000010 00000-0 00000 0 0 7293
2 32953 082.5025 042.4278 0019071 143.3381 216.9010 12.43005202 91192
TACSAT-3
1 35001U 09028A 10147.90119949 .00003432 00000-0 84530-4 0 2969
2 35001 040.4570 335.9521 0021267 217.5423 142.3907 15.41635801 57508
PHARMSAT
1 35002U 09028B 10147.86196137 .00002706 00000-0 66519-4 0 2802
2 35002 040.4713 334.2585 0024581 220.5040 139.3958 15.42177979 57512
HAWKSAT1
1 35003U 09028C 10147.87546959 .00006321 00000-0 13412-3 0 2995
2 35003 040.4635 329.5607 0022602 234.7052 125.1647 15.45105748 57572
CP6
1 35004U 09028D 10146.91397609 .00007291 00000-0 15012-3 0 03037
2 35004 040.4656 334.5927 0021408 230.0729 129.8204 15.45857168057424
AEROCUB3
1 35005U 09028E 10146.90539926 .00021522 00000-0 37184-3 0 03405
2 35005 040.4752 333.0910 0018867 241.8789 118.0123 15.50220603057445
DRAGNSAT
1 35690U 09038B 10076.22711312 .05715194 12509-4 31481-3 0 3162
2 35690 051.6170 315.4586 0004999 310.9891 057.3269 16.42150010 36561
POLLUX
1 35693U 09038E 10087.99866888 .23496735 12787-4 17715-3 0 3529
2 35693 051.6099 254.5746 0006270 294.4866 097.5899 16.52338462 38395
CASTOR
1 35694U 09038F 10147.85887669 .00064519 13095-4 13382-3 0 4124
2 35694 051.6371 308.7625 0001524 147.0596 213.0510 15.99367372 47800
METEOR-M
1 35865U 09049A 10147.86724268 .00000176 00000-0 10000-3 0 3302
2 35865 098.7595 201.8094 0003437 066.6524 293.4996 14.21830301 35836
RS-38
1 35869U 09049E 10147.70019209 .00000177 00000-0 10000-3 0 3380
2 35869 098.7586 201.6742 0005532 066.9585 293.2137 14.21982193 35816
